Logansport, IN

10:17 PM EST on February 25, 2017 (GMT -0500)
Logansport Municipal

Weather History for KGGP - January, 2012

Change the Weather History Date:

Thursday, January 26, 2012

  Actual Average Record
Temperature  
Mean Temperature 32 °F -  
Max Temperature 33 °F 26 °F 44 °F (2016)
Min Temperature 32 °F 13 °F 1 °F (2014)
Degree Days  
Heating Degree Days 32    
Moisture  
Dew Point 32 °F    
Average Humidity 100    
Maximum Humidity 100    
Minimum Humidity 93    
Precipitation  
Precipitation 0.18 in - - ()
Sea Level Pressure  
Sea Level Pressure 29.79 in    
Wind  
Wind Speed 5 mph ()    
Max Wind Speed 9 mph    
Max Gust Speed -    
Visibility 2.7 miles    
Events Rain , Snow    
Averages and records for this station are not official NWS values.
T = Trace of Precipitation, MM = Missing Value Source: Averaged Metar Reports

Daily Weather History Graph

Daily Weather History Graph

Search for Another Location

Airport or City:

Trip Planner

Search our weather history database for the weather conditions in past years. The results will help you decide how hot, cold, wet, or windy it might be!

Date:

Astronomy

Jan. 26, 2012 Rise Set
Actual Time 8:01 AM EST 5:55 PM EST
Civil Twilight 7:31 AM EST 6:24 PM EST
Nautical Twilight 6:58 AM EST 6:57 PM EST
Astronomical Twilight 6:26 AM EST 7:30 PM EST
Moon 9:26 AM EST 9:49 PM EST
Length of Visible Light 10h 52m
Length of Day
9h 54m
Waxing Crescent, 12% of the Moon is Illuminated
Jan 26
Waxing Crescent
Jan 30
First Quarter
Feb 7
Full
Feb 14
Last Quarter
Feb 21
New

Hourly Weather History & Observations

Time (EST) Temp. Windchill Dew Point Humidity Pressure Visibility Wind Dir Wind Speed Gust Speed Precip Events Conditions
12:15 AM 32.0 °F 27.5 °F 32.0 °F 100% 30.07 in 3.0 mi ESE 4.6 mph - N/A   Overcast
12:35 AM 32.0 °F 26.4 °F 32.0 °F 100% 30.06 in 3.0 mi East 5.8 mph - N/A   Overcast
12:55 AM 32.0 °F 27.5 °F 32.0 °F 100% 30.05 in 3.0 mi ENE 4.6 mph - N/A   Overcast
1:15 AM 32.0 °F 27.5 °F 32.0 °F 100% 30.04 in 3.0 mi East 4.6 mph - N/A Rain Light Rain
1:35 AM 32.0 °F 25.6 °F 32.0 °F 100% 30.02 in 2.5 mi East 6.9 mph - N/A   Overcast
1:55 AM 32.0 °F 27.5 °F 32.0 °F 100% 30.02 in 2.5 mi ENE 4.6 mph - N/A   Overcast
2:15 AM 32.0 °F 27.5 °F 32.0 °F 100% 30.01 in 2.5 mi ENE 4.6 mph - 0.01 in   Overcast
2:35 AM 32.0 °F 27.5 °F 32.0 °F 100% 30.02 in 2.0 mi NNE 4.6 mph - 0.01 in   Overcast
2:55 AM 32.0 °F 27.5 °F 32.0 °F 100% 30.01 in 2.0 mi East 4.6 mph - 0.01 in   Overcast
3:15 AM 32.0 °F 27.5 °F 32.0 °F 100% 30.01 in 2.5 mi East 4.6 mph - N/A   Overcast
3:35 AM 32.0 °F 25.6 °F 32.0 °F 100% 29.98 in 2.0 mi East 6.9 mph - N/A   Light Drizzle
3:55 AM 32.0 °F 27.5 °F 32.0 °F 100% 29.97 in 2.5 mi NE 4.6 mph - N/A   Overcast
4:15 AM 32.0 °F 24.2 °F 32.0 °F 100% 29.94 in 2.5 mi East 9.2 mph - N/A   Overcast
4:35 AM 32.0 °F 26.4 °F 32.0 °F 100% 29.94 in 2.5 mi NNE 5.8 mph - N/A   Overcast
4:55 AM 32.0 °F 26.4 °F 32.0 °F 100% 29.94 in 2.0 mi North 5.8 mph - N/A   Overcast
5:15 AM 32.0 °F 26.4 °F 32.0 °F 100% 29.92 in 2.0 mi NE 5.8 mph - N/A Rain Light Rain
5:35 AM 32.0 °F 28.7 °F 32.0 °F 100% 29.93 in 2.0 mi NE 3.5 mph - N/A   Overcast
5:55 AM 32.0 °F 27.5 °F 32.0 °F 100% 29.93 in 2.0 mi ENE 4.6 mph - N/A   Overcast
6:15 AM 32.0 °F 25.6 °F 32.0 °F 100% 29.92 in 2.0 mi ENE 6.9 mph - 0.02 in   Overcast
6:35 AM 32.0 °F 28.7 °F 32.0 °F 100% 29.92 in 2.0 mi NE 3.5 mph - 0.02 in   Overcast
6:55 AM 32.0 °F 28.7 °F 32.0 °F 100% 29.91 in 2.0 mi ENE 3.5 mph - 0.03 in   Overcast
7:15 AM 32.0 °F 25.6 °F 32.0 °F 100% 29.89 in 2.0 mi ENE 6.9 mph - 0.01 in   Overcast
7:35 AM 32.0 °F 25.6 °F 32.0 °F 100% 29.87 in 2.0 mi ENE 6.9 mph - 0.02 in Rain Light Rain
7:55 AM 32.0 °F 24.2 °F 32.0 °F 100% 29.86 in 2.5 mi ENE 9.2 mph - 0.02 in   Overcast
8:15 AM 32.0 °F 26.4 °F 32.0 °F 100% 29.86 in 1.5 mi ENE 5.8 mph - N/A Rain Light Rain
8:35 AM 32.0 °F 27.5 °F 32.0 °F 100% 29.86 in 1.5 mi ENE 4.6 mph - N/A   Overcast
8:55 AM 32.0 °F 27.5 °F 32.0 °F 100% 29.85 in 1.5 mi NE 4.6 mph - N/A Rain Light Rain
9:15 AM 32.0 °F 27.5 °F 32.0 °F 100% 29.85 in 1.2 mi NE 4.6 mph - N/A Rain Rain
9:35 AM 32.0 °F 25.6 °F 32.0 °F 100% 29.84 in 1.2 mi NNE 6.9 mph - 0.01 in Rain Rain
9:55 AM 32.0 °F 24.8 °F 32.0 °F 100% 29.82 in 1.5 mi NE 8.1 mph - 0.02 in Rain Light Rain
10:15 AM 32.0 °F 26.4 °F 32.0 °F 100% 29.81 in 1.5 mi NE 5.8 mph - 0.01 in Rain Light Rain
10:35 AM 32.0 °F 26.4 °F 32.0 °F 100% 29.82 in 2.5 mi ENE 5.8 mph - 0.01 in   Drizzle
10:55 AM 32.0 °F 26.4 °F 32.0 °F 100% 29.82 in 2.5 mi NE 5.8 mph - 0.01 in   Drizzle
11:15 AM 32.0 °F 27.5 °F 32.0 °F 100% 29.82 in 3.0 mi ENE 4.6 mph - N/A Rain Light Rain
11:35 AM 32.0 °F 26.4 °F 32.0 °F 100% 29.80 in 3.0 mi ENE 5.8 mph - N/A Rain Rain
11:55 AM 32.0 °F 27.5 °F 32.0 °F 100% 29.78 in 2.5 mi NE 4.6 mph - N/A   Drizzle
12:15 PM 32.0 °F 26.4 °F 32.0 °F 100% 29.77 in 2.5 mi NE 5.8 mph - N/A   Drizzle
12:35 PM 32.0 °F 28.7 °F 32.0 °F 100% 29.75 in 2.5 mi NE 3.5 mph - N/A Rain Light Rain
12:55 PM 32.0 °F 26.4 °F 32.0 °F 100% 29.74 in 2.5 mi NNE 5.8 mph - N/A Rain Light Rain
1:15 PM 32.0 °F 25.6 °F 32.0 °F 100% 29.74 in 2.5 mi NNE 6.9 mph - N/A Rain Rain
1:35 PM 32.0 °F 26.4 °F 32.0 °F 100% 29.73 in 2.5 mi NE 5.8 mph - N/A   Drizzle
1:55 PM 32.0 °F 27.5 °F 32.0 °F 100% 29.71 in 2.0 mi NNE 4.6 mph - N/A Rain Light Rain
2:15 PM 32.0 °F 26.4 °F 32.0 °F 100% 29.70 in 3.0 mi NE 5.8 mph - N/A   Drizzle
2:35 PM 32.0 °F 26.4 °F 32.0 °F 100% 29.69 in 2.5 mi ENE 5.8 mph - N/A   Light Drizzle
2:55 PM 32.0 °F 26.4 °F 32.0 °F 100% 29.69 in 3.0 mi ENE 5.8 mph - N/A Rain Rain
3:15 PM 33.8 °F 28.6 °F 32.0 °F 93% 29.68 in 2.0 mi ENE 5.8 mph - 0.01 in Rain Light Rain
3:35 PM 32.0 °F 24.2 °F 32.0 °F 100% 29.66 in 3.0 mi ENE 9.2 mph - 0.01 in   Light Drizzle
3:55 PM 33.8 °F 27.7 °F 32.0 °F 93% 29.65 in 4.0 mi East 6.9 mph - 0.01 in   Overcast
4:15 PM 32.0 °F 27.5 °F 32.0 °F 100% 29.65 in 4.0 mi NE 4.6 mph - N/A   Overcast
4:35 PM 32.0 °F 28.7 °F 32.0 °F 100% 29.64 in 3.0 mi NE 3.5 mph - N/A Rain Rain
4:55 PM 32.0 °F 27.5 °F 32.0 °F 100% 29.63 in 3.0 mi ENE 4.6 mph - N/A   Light Drizzle
5:15 PM 32.0 °F 27.5 °F 32.0 °F 100% 29.64 in 2.5 mi ENE 4.6 mph - N/A   Drizzle
5:35 PM 32.0 °F - 32.0 °F 100% 29.64 in 1.5 mi Calm Calm - 0.01 in Rain Rain
5:55 PM 32.0 °F - 32.0 °F 100% 29.65 in 1.8 mi Calm Calm - 0.03 in Rain Light Rain
6:15 PM 32.0 °F 28.7 °F 32.0 °F 100% 29.66 in 2.5 mi WNW 3.5 mph - N/A Rain Light Rain
6:35 PM 32.0 °F 27.5 °F 32.0 °F 100% 29.66 in 2.0 mi West 4.6 mph - 0.01 in Rain Rain
6:55 PM 32.0 °F - 32.0 °F 100% 29.66 in 1.8 mi Calm Calm - 0.02 in Rain Light Rain
7:15 PM 32.0 °F 28.7 °F 32.0 °F 100% 29.66 in 2.0 mi NW 3.5 mph - N/A Rain Rain
7:35 PM 32.0 °F 26.4 °F 32.0 °F 100% 29.63 in 2.0 mi North 5.8 mph - 0.02 in Rain Light Rain
7:55 PM 32.0 °F 24.8 °F 32.0 °F 100% 29.61 in 2.0 mi North 8.1 mph - 0.02 in Rain Light Rain
8:15 PM 32.0 °F 24.8 °F 32.0 °F 100% 29.59 in 3.0 mi NNW 8.1 mph - 0.01 in Rain Light Rain
8:35 PM 32.0 °F 27.5 °F 32.0 °F 100% 29.61 in 5.0 mi North 4.6 mph - 0.01 in   Drizzle
8:55 PM 32.0 °F 26.4 °F 32.0 °F 100% 29.61 in 5.0 mi NW 5.8 mph - 0.01 in Rain Rain
9:35 PM 32.0 °F 27.5 °F 32.0 °F 100% 29.61 in 5.0 mi NW 4.6 mph - N/A   Light Drizzle
9:55 PM 32.0 °F 26.4 °F 32.0 °F 100% 29.61 in 5.0 mi NW 5.8 mph - N/A Rain Rain
10:15 PM 32.0 °F 27.5 °F 32.0 °F 100% 29.62 in 3.0 mi NW 4.6 mph - N/A Snow Light Snow
10:35 PM 32.0 °F 26.4 °F 32.0 °F 100% 29.61 in 4.0 mi NNW 5.8 mph - N/A Rain Light Rain
10:55 PM 32.0 °F 26.4 °F 32.0 °F 100% 29.60 in 5.0 mi NNW 5.8 mph - N/A Rain Light Rain
11:15 PM 32.0 °F 26.4 °F 32.0 °F 100% 29.59 in 7.0 mi NW 5.8 mph - N/A   Overcast
11:35 PM 32.0 °F 27.5 °F 32.0 °F 100% 29.60 in 5.0 mi WNW 4.6 mph - N/A   Overcast
11:55 PM 32.0 °F - 32.0 °F 100% 29.61 in 5.0 mi Calm Calm - N/A   Overcast